Preview of NWS' New Version of Forecast
This preview is not operational and should not be used for support decisions.

Regional Weather Roundup (RWR)

Issued by National Weather Service (NWS)

                            
000
ASUS46 KSEW 190710
RWRWA 

WASHINGTON REGIONAL WEATHER ROUNDUP
NATIONAL WEATHER SERVICE SEATTLE WA
1100 PM PST MON FEB 18 2019

NOTE:"FAIR" INDICATES FEW OR NO CLOUDS BELOW 12,000 FEET WITH NO 
SIGNIFICANT WEATHER AND/OR OBSTRUCTIONS TO VISIBILITY.

WAZ507-509-555>559-190800-
SEATTLE, TACOMA, EVERETT, AND VICINITY
  
CITY           SKY/WX    TMP DP  RH WIND       PRES   REMARKS
EVERETT        CLOUDY    37  32  82 E6        30.31F                  
BOEING FIELD   CLOUDY    39  35  86 SE5       30.33F                  
RENTON         CLOUDY    38  35  89 SE3       30.33F                  
SEATAC AIRPORT CLOUDY    40  35  83 SE7       30.31F                  
JBLM-MCCHORD   CLOUDY    37  37 100 S5        30.33F                  
PUYALLUP       MOCLDY    37  37 100 CALM      30.33S                  
BREMERTON      CLOUDY    33  33 100 CALM      30.31                   
JBLM-FT LEWIS  NOT AVBL                                               
TACOMA NARROWS CLOUDY    40  35  83 SW5       30.33S                  
$$
 
WAZ001-503-506-510-514-515-190800-
NORTH INTERIOR
  
CITY           SKY/WX    TMP DP  RH WIND       PRES   REMARKS
BELLINGHAM     CLOUDY    32  24  72 CALM      30.31F                  
FRIDAY HARBOR  CLOUDY    37  32  82 CALM      30.32F                  
EASTSOUND      CLOUDY    36  36 100 CALM      30.31F                  
PORT ANGELES   PTCLDY    34  32  92 SW5       30.30F                  
EDIZ HOOK      PTSUNNY   39  35  86 SW6       30.31F                  
PORT TOWNSEND  CLOUDY    36  36 100 CALM      30.31F FOG              
NAS WHIDBEY    CLOUDY    40  34  79 SE6       30.35F                  
ARLINGTON      MIX PCPN  34  31  88 N3        30.33F                  
BURLINGTON     CLOUDY    34  27  75 CALM      30.32F                  
$$
 
WAZ020-022-039-040-504-511-512-190800-
SOUTHWEST INTERIOR
  
CITY           SKY/WX    TMP DP  RH WIND       PRES   REMARKS
SHELTON        MOCLDY    31  29  92 NW3       30.30F                  
OLYMPIA        CLOUDY    38  35  89 SW6       30.34S                  
CHEHALIS       CLOUDY    39  39 100 SW5       30.35F                  
KELSO          LGT RAIN  39  37  92 SE6       30.39R                  
VANCOUVER      CLOUDY    40  35  83 CALM      30.37S                  
SCAPPOOSE, OR  CLOUDY    39  36  89 N3        30.38R FOG              
PORTLAND, OR   CLOUDY    40  35  83 E3        30.38R                  
$$
 
WAZ021-516-517-190800-
WASHINGTON COAST
  
CITY           SKY/WX    TMP DP  RH WIND       PRES   REMARKS
FORKS          CLOUDY    37  34  89 CALM      30.31F                  
HOQUIAM        CLOUDY    39  38  96 CALM      30.34F                  
ASTORIA, OR    CLOUDY    39  38  96 SE3       30.36S                  
$$
 
WAZ019-023-024-040-567>569-190800-
CASCADE MOUNTAINS AND COLUMBIA GORGE
  
CITY           SKY/WX    TMP DP  RH WIND       PRES   REMARKS
STAMPEDE PASS  FOG       26  23  88 VRB7      30.15S VSB 1/2          
TROUTDALE, OR  CLOUDY    40  35  83 NE3       30.38R                  
HOOD RIVER, OR PTSUNNY   36  32  87 W8        30.30F                  
THE DALLES, OR PTCLDY    28  24  85 S6        30.30F                  
$$

WAZ026-027-041>044-520-521-190800-
EAST SLOPES
  
CITY           SKY/WX    TMP DP  RH WIND       PRES   REMARKS
OMAK           CLEAR     13   9  84 W6        30.27F                  
WENATCHEE      CLEAR     18  12  77 MISG      30.26F                  
ELLENSBURG     CLEAR     17  13  84 E5        30.22S                  
YAKIMA         CLEAR     13   9  84 W7        30.28S                  
SUNNYSIDE ARPT MOSUNNY   17  14  91 NE5       30.30                   
YAKIMA TC      PTSUNNY   15  12  88 CALM      30.25R                  
$$

WAZ028-034-035-190800-
COLUMBIA BASIN
  
CITY           SKY/WX    TMP DP  RH WIND       PRES   REMARKS
EPHRATA        CLOUDY    18  11  74 N7        30.27F                  
MOSES LAKE     CLOUDY   N/A N/A N/A CALM      30.28S                  
PASCO          MOCLDY    17  16  95 CALM      30.33S                  
RICHLAND ARPT  PTSUNNY   19  15  85 CALM      30.33S                  
HERMISTON, OR  MOCLDY    26  22  84 W6        30.28F                  
$$

WAZ036>038-190800-
NORTHEAST WASHINGTON
  
CITY           SKY/WX    TMP DP  RH WIND       PRES   REMARKS
SPOKANE GEIGER PTCLDY    11   5  77 S6        30.20F                  
SPOKANE FELTS  PTCLDY    14  11  87 NE3       30.25F                  
FAIRCHILD AFB  MOCLDY     9   8  94 CALM      30.19F                  
COEURDALENE,ID CLOUDY    14  11  87 S6        30.21F                  
DEER PARK      MOCLDY     3   0  87 CALM      30.23S                  
$$

WAZ029>033-190800-
SOUTHEAST WASHINGTON
  
CITY           SKY/WX    TMP DP  RH WIND       PRES   REMARKS
PULLMAN        PTCLDY    14  10  84 NE5       30.21F                  
LEWISTON, ID   CLOUDY    25  20  81 CALM      30.28S                  
WALLA WALLA    CLOUDY    30  22  72 CALM      30.25F                  
PENDLETON, OR  CLOUDY    31  26  82 W5        30.23F                  
$$